Skip Page Navigation
NASA JPL Caltech
NASA Logo - Jet Propulsion Laboratory + View the NASA Portal
+ Near-Earth Object (NEO) Program
Search JPL
JPL Home Earth Solar System Stars & Galaxies Technology
JPL Solar System Dynamics
BODIES ORBITS EPHEMERIDES TOOLS PHYSICAL DATA DISCOVERY FAQ SITE MAP
JPL Small-Body Database Browser
Search: [ help ]  
36445 Smalley (2000 QU)
Classification: Main-belt Asteroid          SPK-ID: 2036445
Ephemeris | Orbit Diagram | Orbital Elements | Physical Parameters | Discovery Circumstances ]

[ show orbit diagram ]
Orbital Elements at Epoch 2456400.5 (2013-Apr-18.0) TDB
Reference: JPL 1 (heliocentric ecliptic J2000)
 Element Value Uncertainty (1-sigma)   Units 
e .1960214675513205 6.6483e-08  
a 2.3208287303422 2.1175e-08 AU
q 1.865896476685254 1.5093e-07 AU
i 9.890233816640507 9.1956e-06 deg
node 153.0414327007128 3.9353e-05 deg
peri 264.4302858150945 4.6031e-05 deg
M 147.4971334533981 2.3641e-05 deg
tp 2455871.392223797773
(2011-Nov-05.89222380)
8.3781e-05 JED
period 1291.406788546055
3.54
1.7674e-05
4.839e-08
d
yr
n .2787657639660622 3.8152e-09 deg/d
Q 2.775760983999146 2.5326e-08 AU
  Orbit Determination Parameters
   # obs. used (total)      730  
   data-arc span      6598 days (18.06 yr)  
   first obs. used      1995-03-24  
   last obs. used      2013-04-16  
   planetary ephem.      DE405  
   SB-pert. ephem.      SB405-CPV-2  
   condition code      0  
   fit RMS      .52151  
   data source      ORB  
   producer      Otto Matic  
   solution date      2013-Apr-29 15:22:05  

Additional Information
 Earth MOID = .907227 AU 
 T_jup = 3.532 
[ show covariance matrix ]

Ephemeris | Orbit Diagram | Orbital Elements | Physical Parameters | Discovery Circumstances ]

Physical Parameter Table
Parameter Symbol Value Units Sigma Reference Notes
absolute magnitude H 14.9 mag n/a PDS3 (MPO 24573)  

36445 Smalley           Discovered 2000 Aug. 23 by L. Robinson at Sunflower Observatory.
Kyle Smalley (b. 1961) is an amateur astronomer and team member of the Powell Observatory Near-Earth-Object follow-up program.
NOTE: some special characters may not display properly (any characters within {} are an attempt to place the proper accent above a character)
Reference: 20020921/MPCPages.arcLast Updated: 2003-10-02

Alternate Designations
 2000 QU = 1999 JE93 
Ephemeris | Orbit Diagram | Orbital Elements | Physical Parameters | Discovery Circumstances ]
ABOUT SSD CREDITS/AWARDS PRIVACY/COPYRIGHT GLOSSARY LINKS
FirstGov 2013-May-18 10:32 UT
(server date/time)  
NASA Home Page
Site Manager:   Donald K. Yeomans
Webmaster  Alan B. Chamberlin